�������l�o���
Date,Time,MP-1(��Sv/h),MP-2(��Sv/h),MP-3(��Sv/h),MP-4(��Sv/h),MP-5(��Sv/h),MP-6(��Sv/h),MP-7(��Sv/h),MP-8(��Sv/h),����,����(m/s),���J
2024/01/27,00:00,0.505,0.763,0.479,0.964,0.677,0.310,0.552,0.520,�k��,1.8,��
2024/01/27,00:10,0.505,0.762,0.479,0.962,0.677,0.310,0.553,0.520,��,2.3,��
2024/01/27,00:20,0.505,0.763,0.479,0.961,0.677,0.312,0.553,0.520,��,2.2,��
2024/01/27,00:30,0.505,0.764,0.480,0.962,0.677,0.310,0.552,0.519,���k��,2.9,��
2024/01/27,00:40,0.506,0.765,0.479,0.961,0.678,0.309,0.552,0.519,���k��,1.7,��
2024/01/27,00:50,0.505,0.762,0.478,0.961,0.678,0.309,0.553,0.519,���k��,2.2,��
2024/01/27,01:00,0.506,0.762,0.480,0.962,0.678,0.311,0.554,0.519,���k��,3.3,��
2024/01/27,01:10,0.506,0.763,0.480,0.963,0.678,0.309,0.553,0.519,��,2.6,��
2024/01/27,01:20,0.505,0.763,0.478,0.961,0.677,0.310,0.553,0.518,��,1.9,��
2024/01/27,01:30,0.505,0.761,0.480,0.960,0.678,0.310,0.553,0.520,��,1.4,��
2024/01/27,01:40,0.506,0.764,0.478,0.960,0.678,0.309,0.553,0.520,���k��,2.3,��
2024/01/27,01:50,0.505,0.762,0.478,0.962,0.677,0.311,0.552,0.519,���k��,3.0,��
2024/01/27,02:00,0.506,0.763,0.481,0.963,0.678,0.310,0.552,0.520,�k��,4.3,��
2024/01/27,02:10,0.504,0.763,0.480,0.962,0.677,0.310,0.551,0.521,���k��,4.0,��
2024/01/27,02:20,0.504,0.763,0.478,0.962,0.678,0.309,0.551,0.520,���k��,4.1,��
2024/01/27,02:30,0.505,0.763,0.480,0.958,0.678,0.309,0.553,0.519,�k��,3.4,��
2024/01/27,02:40,0.506,0.762,0.478,0.961,0.677,0.309,0.553,0.518,�k��,3.2,��
2024/01/27,02:50,0.505,0.764,0.480,0.962,0.679,0.311,0.552,0.520,�k��,3.3,��
2024/01/27,03:00,0.504,0.765,0.478,0.961,0.677,0.309,0.554,0.520,�k��,3.0,��
2024/01/27,03:10,0.504,0.762,0.477,0.961,0.678,0.310,0.551,0.519,�k�k��,2.6,��
2024/01/27,03:20,0.506,0.763,0.478,0.959,0.677,0.310,0.552,0.519,�k��,1.8,��
2024/01/27,03:30,0.505,0.762,0.479,0.961,0.676,0.310,0.554,0.519,�k�k��,2.0,��
2024/01/27,03:40,0.504,0.761,0.481,0.962,0.678,0.310,0.553,0.519,�k��,2.6,��
2024/01/27,03:50,0.504,0.763,0.479,0.960,0.675,0.309,0.553,0.520,�k�k��,2.0,��
2024/01/27,04:00,0.506,0.763,0.477,0.961,0.677,0.310,0.554,0.521,�k��,2.6,��
2024/01/27,04:10,0.503,0.761,0.477,0.960,0.677,0.310,0.554,0.519,�k��,3.8,��
2024/01/27,04:20,0.504,0.763,0.479,0.961,0.676,0.310,0.553,0.519,�k��,4.1,��
2024/01/27,04:30,0.505,0.761,0.478,0.962,0.676,0.309,0.554,0.521,�k��,3.7,��
2024/01/27,04:40,0.504,0.764,0.480,0.963,0.677,0.310,0.554,0.521,�k��,6.2,��
2024/01/27,04:50,0.504,0.764,0.479,0.962,0.676,0.311,0.553,0.519,���k��,7.5,��
2024/01/27,05:00,0.506,0.763,0.478,0.963,0.676,0.309,0.552,0.519,���k��,6.9,��
2024/01/27,05:10,0.505,0.763,0.478,0.961,0.676,0.309,0.554,0.519,���k��,4.7,��
2024/01/27,05:20,0.506,0.762,0.480,0.962,0.676,0.310,0.552,0.517,���k��,3.4,��
2024/01/27,05:30,0.506,0.762,0.479,0.962,0.677,0.309,0.554,0.519,���k��,2.3,��
2024/01/27,05:40,0.503,0.763,0.478,0.960,0.678,0.310,0.552,0.520,���k��,1.8,��
2024/01/27,05:50,0.504,0.763,0.479,0.961,0.677,0.311,0.552,0.518,���k��,0.9,��
2024/01/27,06:00,0.504,0.763,0.479,0.960,0.677,0.310,0.553,0.519,��,0.9,��
2024/01/27,06:10,0.506,0.762,0.479,0.961,0.677,0.310,0.554,0.519,��,1.2,��
2024/01/27,06:20,0.506,0.764,0.479,0.961,0.677,0.310,0.554,0.521,��,1.2,��
2024/01/27,06:30,0.505,0.761,0.479,0.961,0.675,0.310,0.555,0.519,�k��,0.6,��
2024/01/27,06:40,0.505,0.762,0.477,0.960,0.676,0.310,0.552,0.519,�k��,0.6,��
2024/01/27,06:50,0.505,0.762,0.480,0.959,0.675,0.309,0.552,0.519,�k��,0.9,��
2024/01/27,07:00,0.504,0.761,0.478,0.961,0.675,0.310,0.552,0.518,���k��,1.2,��
2024/01/27,07:10,0.505,0.762,0.478,0.960,0.675,0.310,0.552,0.518,��,1.1,��
2024/01/27,07:20,0.504,0.761,0.478,0.962,0.675,0.309,0.553,0.519,��,0.8,��
2024/01/27,07:30,0.506,0.764,0.478,0.961,0.676,0.310,0.552,0.518,��,1.4,��
2024/01/27,07:40,0.504,0.765,0.478,0.960,0.675,0.309,0.552,0.519,���k��,2.6,��
2024/01/27,07:50,0.504,0.762,0.479,0.960,0.675,0.310,0.553,0.519,��,2.0,��
2024/01/27,08:00,0.505,0.762,0.478,0.961,0.675,0.310,0.555,0.520,���k��,1.5,��
2024/01/27,08:10,0.505,0.763,0.478,0.961,0.677,0.311,0.551,0.520,�k��,1.7,��
2024/01/27,08:20,0.505,0.764,0.478,0.961,0.677,0.309,0.552,0.519,�k��,1.7,��
2024/01/27,08:30,0.506,0.764,0.479,0.961,0.675,0.310,0.553,0.520,�k�k��,2.8,��
2024/01/27,08:40,0.504,0.762,0.479,0.961,0.675,0.309,0.553,0.518,�k�k��,2.3,��
2024/01/27,08:50,0.506,0.764,0.480,0.961,0.676,0.309,0.554,0.519,�k�k��,1.7,��
2024/01/27,09:00,0.505,0.763,0.481,0.960,0.677,0.311,0.554,0.521,�k,1.2,��
2024/01/27,09:10,0.505,0.762,0.480,0.961,0.676,0.309,0.555,0.519,�k,1.7,��
2024/01/27,09:20,0.506,0.764,0.480,0.962,0.678,0.311,0.556,0.520,�k�k��,3.0,��
2024/01/27,09:30,0.506,0.763,0.481,0.962,0.678,0.311,0.554,0.520,�k�k��,3.0,��
2024/01/27,09:40,0.506,0.764,0.480,0.962,0.677,0.310,0.556,0.519,�k�k��,4.0,��
2024/01/27,09:50,0.506,0.764,0.481,0.963,0.679,0.311,0.555,0.520,�k,3.0,��
2024/01/27,10:00,0.506,0.764,0.480,0.963,0.678,0.310,0.553,0.519,�k�k��,3.7,��
2024/01/27,10:10,0.506,0.764,0.480,0.966,0.679,0.311,0.554,0.521,�k�k��,2.5,��
2024/01/27,10:20,0.505,0.762,0.481,0.963,0.679,0.310,0.551,0.521,�k,3.0,��
2024/01/27,10:30,0.506,0.763,0.483,0.963,0.681,0.312,0.553,0.521,�k,3.0,��
2024/01/27,10:40,0.506,0.762,0.481,0.961,0.681,0.312,0.553,0.520,�k�k��,2.6,��
2024/01/27,10:50,0.508,0.763,0.483,0.962,0.679,0.311,0.553,0.519,�k�k��,3.0,��
2024/01/27,11:00,0.506,0.763,0.481,0.966,0.682,0.311,0.554,0.520,���k��,2.6,��
2024/01/27,11:10,0.506,0.763,0.483,0.964,0.680,0.312,0.552,0.520,���k��,2.0,��
2024/01/27,11:20,0.505,0.763,0.481,0.964,0.680,0.311,0.553,0.522,��,1.7,��
2024/01/27,11:30,0.508,0.764,0.482,0.965,0.681,0.311,0.553,0.521,���쓌,2.3,��
2024/01/27,11:40,0.507,0.766,0.482,0.963,0.684,0.311,0.550,0.521,��,1.7,��
2024/01/27,11:50,0.508,0.767,0.482,0.963,0.680,0.312,0.553,0.521,-,CALM,��
2024/01/27,12:00,0.508,0.767,0.482,0.963,0.683,0.310,0.554,0.520,��,0.6,��
2024/01/27,12:10,0.508,0.766,0.481,0.963,0.683,0.311,0.553,0.521,���쓌,0.6,��
2024/01/27,12:20,0.508,0.767,0.484,0.964,0.682,0.312,0.554,0.520,��,3.0,��
2024/01/27,12:30,0.509,0.768,0.483,0.966,0.684,0.312,0.553,0.520,���k��,5.2,��
2024/01/27,12:40,0.507,0.768,0.482,0.964,0.684,0.312,0.553,0.521,�k,2.6,��
2024/01/27,12:50,0.507,0.769,0.481,0.966,0.682,0.312,0.552,0.521,���k��,4.0,��
2024/01/27,13:00,0.511,0.769,0.481,0.964,0.682,0.313,0.553,0.521,��,6.2,��
2024/01/27,13:10,0.506,0.768,0.483,0.963,0.683,0.312,0.552,0.521,���k��,5.7,��
2024/01/27,13:20,0.508,0.768,0.482,0.965,0.683,0.312,0.553,0.521,�k,3.6,��
2024/01/27,13:30,0.508,0.768,0.483,0.965,0.682,0.311,0.555,0.522,�k�k��,4.5,��
2024/01/27,13:40,0.509,0.768,0.481,0.964,0.685,0.311,0.554,0.522,���k��,3.8,��
2024/01/27,13:50,0.508,0.770,0.483,0.964,0.684,0.313,0.554,0.522,�k�k��,5.4,��
2024/01/27,14:00,0.508,0.769,0.482,0.965,0.683,0.312,0.555,0.520,�k�k��,5.1,��
2024/01/27,14:10,0.507,0.768,0.482,0.965,0.681,0.313,0.555,0.523,�k��,5.9,��
2024/01/27,14:20,0.508,0.767,0.482,0.966,0.682,0.312,0.553,0.521,�k��,4.9,��
2024/01/27,14:30,0.509,0.765,0.482,0.965,0.682,0.312,0.555,0.521,�k��,4.4,��
2024/01/27,14:40,0.508,0.767,0.483,0.965,0.683,0.313,0.553,0.522,�k��,5.6,��
2024/01/27,14:50,0.508,0.768,0.482,0.967,0.685,0.314,0.555,0.521,�k�k��,4.2,��
2024/01/27,15:00,0.506,0.768,0.481,0.964,0.683,0.311,0.555,0.522,�k��,3.8,��
2024/01/27,15:10,0.509,0.767,0.483,0.965,0.685,0.312,0.555,0.522,�k��,5.4,��
2024/01/27,15:20,0.509,0.769,0.482,0.966,0.685,0.313,0.556,0.520,�k��,4.0,��
2024/01/27,15:30,0.509,0.768,0.483,0.966,0.685,0.312,0.555,0.522,�k��,4.0,��
2024/01/27,15:40,0.509,0.767,0.481,0.965,0.685,0.313,0.555,0.523,�k�k��,3.3,��
2024/01/27,15:50,0.508,0.768,0.481,0.967,0.684,0.312,0.556,0.523,�k��,3.7,��
2024/01/27,16:00,0.508,0.769,0.481,0.965,0.683,0.313,0.556,0.521,�k�k��,4.2,��
2024/01/27,16:10,0.507,0.768,0.481,0.964,0.685,0.311,0.555,0.522,�k�k��,4.5,��
2024/01/27,16:20,0.508,0.768,0.483,0.966,0.685,0.311,0.557,0.522,�k��,5.0,��
2024/01/27,16:30,0.508,0.767,0.481,0.965,0.683,0.311,0.558,0.523,�k�k��,4.3,��
2024/01/27,16:40,0.509,0.770,0.484,0.963,0.682,0.313,0.556,0.521,�k�k��,3.8,��
2024/01/27,16:50,0.508,0.768,0.483,0.965,0.685,0.313,0.558,0.523,�k�k��,3.9,��
2024/01/27,17:00,0.510,0.766,0.481,0.966,0.683,0.310,0.557,0.521,�k�k��,4.6,��
2024/01/27,17:10,0.509,0.768,0.481,0.965,0.683,0.311,0.558,0.522,�k�k��,4.6,��
2024/01/27,17:20,0.507,0.769,0.482,0.965,0.684,0.312,0.557,0.519,�k��,4.2,��
2024/01/27,17:30,0.507,0.768,0.481,0.966,0.683,0.311,0.557,0.521,�k�k��,3.0,��
2024/01/27,17:40,0.506,0.766,0.481,0.966,0.682,0.312,0.556,0.521,�k��,2.8,��
2024/01/27,17:50,0.507,0.766,0.481,0.965,0.685,0.311,0.556,0.520,���k��,1.2,��
2024/01/27,18:00,0.507,0.766,0.481,0.963,0.682,0.311,0.556,0.519,�k��,2.2,��
2024/01/27,18:10,0.508,0.768,0.481,0.964,0.684,0.311,0.556,0.521,���k��,2.5,��
2024/01/27,18:20,0.507,0.767,0.481,0.966,0.684,0.311,0.556,0.520,�k��,3.0,��
2024/01/27,18:30,0.507,0.766,0.482,0.964,0.684,0.311,0.555,0.520,�k��,2.6,��
2024/01/27,18:40,0.506,0.768,0.482,0.964,0.683,0.311,0.555,0.519,�k��,3.0,��
2024/01/27,18:50,0.507,0.768,0.481,0.965,0.683,0.311,0.555,0.518,�k��,3.8,��
2024/01/27,19:00,0.507,0.769,0.482,0.964,0.684,0.310,0.555,0.520,�k��,3.7,��
2024/01/27,19:10,0.506,0.767,0.481,0.965,0.681,0.312,0.555,0.520,�k��,4.3,��
2024/01/27,19:20,0.506,0.766,0.481,0.965,0.684,0.311,0.555,0.520,�k��,2.6,��
2024/01/27,19:30,0.508,0.766,0.480,0.966,0.684,0.311,0.555,0.520,���k��,2.9,��
2024/01/27,19:40,0.508,0.767,0.481,0.964,0.683,0.310,0.554,0.520,��,3.1,��
2024/01/27,19:50,0.507,0.766,0.480,0.964,0.684,0.310,0.556,0.520,���k��,3.0,��
2024/01/27,20:00,0.508,0.767,0.481,0.966,0.684,0.311,0.554,0.520,���k��,2.6,��
2024/01/27,20:10,0.506,0.770,0.482,0.965,0.684,0.310,0.555,0.519,��,3.3,��
2024/01/27,20:20,0.508,0.766,0.480,0.964,0.684,0.311,0.554,0.520,��,2.5,��
2024/01/27,20:30,0.507,0.767,0.481,0.964,0.684,0.310,0.555,0.521,��,2.0,��
2024/01/27,20:40,0.508,0.767,0.481,0.965,0.683,0.311,0.555,0.520,��,3.9,��
2024/01/27,20:50,0.508,0.768,0.481,0.964,0.685,0.312,0.553,0.521,���k��,4.4,��
2024/01/27,21:00,0.506,0.769,0.481,0.965,0.684,0.310,0.555,0.520,��,4.0,��
2024/01/27,21:10,0.507,0.769,0.481,0.964,0.684,0.311,0.556,0.521,��,3.8,��
2024/01/27,21:20,0.508,0.769,0.482,0.963,0.683,0.311,0.553,0.520,��,2.8,��
2024/01/27,21:30,0.508,0.768,0.481,0.964,0.686,0.311,0.554,0.521,��,3.1,��
2024/01/27,21:40,0.506,0.769,0.481,0.965,0.683,0.311,0.555,0.521,��,3.3,��
2024/01/27,21:50,0.506,0.769,0.480,0.965,0.685,0.311,0.555,0.520,��,5.0,��
2024/01/27,22:00,0.507,0.768,0.480,0.964,0.684,0.311,0.554,0.520,���쐼,4.0,��
2024/01/27,22:10,0.508,0.766,0.481,0.964,0.682,0.310,0.555,0.519,��,4.0,��
2024/01/27,22:20,0.507,0.767,0.482,0.966,0.684,0.311,0.555,0.520,��,3.7,��
2024/01/27,22:30,0.508,0.767,0.481,0.965,0.683,0.312,0.554,0.520,��,4.7,��
2024/01/27,22:40,0.508,0.767,0.480,0.965,0.685,0.311,0.554,0.520,��,4.6,��
2024/01/27,22:50,0.506,0.769,0.482,0.963,0.682,0.310,0.555,0.518,��,5.1,��
2024/01/27,23:00,0.507,0.768,0.480,0.965,0.684,0.311,0.554,0.521,��,5.9,��
2024/01/27,23:10,0.508,0.768,0.480,0.966,0.684,0.311,0.555,0.519,��,5.3,��
2024/01/27,23:20,0.508,0.766,0.481,0.964,0.683,0.310,0.553,0.519,��,4.1,��
2024/01/27,23:30,0.507,0.766,0.481,0.964,0.683,0.312,0.554,0.519,��,5.3,��
2024/01/27,23:40,0.505,0.768,0.480,0.963,0.684,0.311,0.554,0.520,���k��,5.3,��
2024/01/27,23:50,0.506,0.767,0.481,0.964,0.682,0.312,0.554,0.519,��,4.5,��
